Time,TemperatureF,DewpointF,PressureIn,WindDirection,WindDirectionDegrees,WindSpeedMPH,WindSpeedGustMPH,Humidity,HourlyPrecipIn,Conditions,Clouds,dailyrainin,SoftwareType,DateUTC
2013-06-20 00:01:00,73.0,41.5,26.81,SE,126,7.6,7.6,32,0.00,,---,0.00,VWS V14.01,2013-06-20 05:01:00,
2013-06-20 00:06:00,72.7,41.2,26.81,SE,124,6.3,6.3,32,0.00,,---,0.00,VWS V14.01,2013-06-20 05:06:00,
2013-06-20 00:11:00,72.9,41.3,26.81,SE,134,8.1,8.1,32,0.00,,---,0.00,VWS V14.01,2013-06-20 05:11:00,
2013-06-20 00:16:00,72.9,41.3,26.81,SE,133,5.8,8.1,32,0.00,,---,0.00,VWS V14.01,2013-06-20 05:16:00,
2013-06-20 00:21:00,72.7,41.2,26.81,SE,137,7.2,7.6,32,0.00,,---,0.00,VWS V14.01,2013-06-20 05:21:00,
2013-06-20 00:26:00,72.5,41.0,26.81,SE,133,8.3,8.7,32,0.00,,---,0.00,VWS V14.01,2013-06-20 05:26:00,
2013-06-20 00:31:00,72.3,40.8,26.81,SE,131,6.3,7.2,32,0.00,,---,0.00,VWS V14.01,2013-06-20 05:31:00,
2013-06-20 00:36:00,72.1,40.7,26.81,SE,131,6.3,6.3,32,0.00,,---,0.00,VWS V14.01,2013-06-20 05:36:00,
2013-06-20 00:41:00,72.0,40.5,26.81,SE,128,7.6,8.1,32,0.00,,---,0.00,VWS V14.01,2013-06-20 05:41:00,
2013-06-20 00:46:00,72.0,40.5,26.81,SE,132,6.3,6.3,32,0.00,,---,0.00,VWS V14.01,2013-06-20 05:46:00,
2013-06-20 00:51:00,72.0,40.5,26.81,SE,126,6.3,6.3,32,0.00,,---,0.00,VWS V14.01,2013-06-20 05:51:00,
2013-06-20 00:56:00,71.4,40.0,26.81,SE,131,5.8,5.8,32,0.00,,---,0.00,VWS V14.01,2013-06-20 05:56:00,
2013-06-20 01:01:00,71.2,39.9,26.81,SE,126,6.3,6.3,32,0.00,,---,0.00,VWS V14.01,2013-06-20 06:01:00,
2013-06-20 01:06:00,71.4,40.0,26.81,SE,132,5.8,5.8,32,0.00,,---,0.00,VWS V14.01,2013-06-20 06:06:00,
2013-06-20 01:11:00,71.4,40.0,26.81,SE,130,5.8,5.8,32,0.00,,---,0.00,VWS V14.01,2013-06-20 06:11:00,
2013-06-20 01:16:00,71.2,39.9,26.81,SE,135,5.8,5.8,32,0.00,,---,0.00,VWS V14.01,2013-06-20 06:16:00,
2013-06-20 01:21:00,71.1,39.7,26.81,SE,134,8.1,8.1,32,0.00,,---,0.00,VWS V14.01,2013-06-20 06:21:00,
2013-06-20 01:26:00,71.1,39.7,26.81,SE,128,5.4,7.2,32,0.00,,---,0.00,VWS V14.01,2013-06-20 06:26:00,
2013-06-20 01:31:00,70.9,39.6,26.78,SE,130,6.3,6.3,32,0.00,,---,0.00,VWS V14.01,2013-06-20 06:31:00,
2013-06-20 01:36:00,70.7,39.4,26.78,SE,127,5.4,5.8,32,0.00,,---,0.00,VWS V14.01,2013-06-20 06:36:00,
2013-06-20 01:41:00,70.5,39.3,26.78,SE,126,5.4,5.8,32,0.00,,---,0.00,VWS V14.01,2013-06-20 06:41:00,
2013-06-20 01:46:00,70.7,39.4,26.78,SE,131,6.3,6.3,32,0.00,,---,0.00,VWS V14.01,2013-06-20 06:46:00,
2013-06-20 01:51:00,70.5,39.3,26.78,ESE,123,5.8,5.8,32,0.00,,---,0.00,VWS V14.01,2013-06-20 06:51:00,
2013-06-20 01:56:00,70.7,39.4,26.78,ESE,123,6.3,6.3,32,0.00,,---,0.00,VWS V14.01,2013-06-20 06:56:00,
2013-06-20 02:01:00,70.2,39.0,26.78,SE,129,6.7,6.7,32,0.00,,---,0.00,VWS V14.01,2013-06-20 07:01:00,
2013-06-20 02:06:00,70.0,38.8,26.78,SE,134,5.4,5.8,32,0.00,,---,0.00,VWS V14.01,2013-06-20 07:06:00,
2013-06-20 02:11:00,69.6,39.3,26.78,SE,124,4.5,5.4,33,0.00,,---,0.00,VWS V14.01,2013-06-20 07:11:00,
2013-06-20 02:16:00,69.4,39.1,26.81,SE,126,4.9,5.8,33,0.00,,---,0.00,VWS V14.01,2013-06-20 07:16:00,
2013-06-20 02:21:00,69.3,39.0,26.81,SE,126,5.4,5.4,33,0.00,,---,0.00,VWS V14.01,2013-06-20 07:21:00,
2013-06-20 02:26:00,69.1,38.8,26.81,SE,129,5.8,5.8,33,0.00,,---,0.00,VWS V14.01,2013-06-20 07:26:00,
2013-06-20 02:31:00,69.1,38.8,26.78,SE,130,5.4,5.8,33,0.00,,---,0.00,VWS V14.01,2013-06-20 07:31:00,
2013-06-20 02:36:00,69.1,38.8,26.78,SE,129,5.8,5.8,33,0.00,,---,0.00,VWS V14.01,2013-06-20 07:36:00,
2013-06-20 02:41:00,69.3,39.0,26.78,SE,136,5.4,6.3,33,0.00,,---,0.00,VWS V14.01,2013-06-20 07:41:00,
2013-06-20 02:46:00,69.4,39.1,26.78,SE,142,6.3,6.3,33,0.00,,---,0.00,VWS V14.01,2013-06-20 07:46:00,
2013-06-20 02:51:00,69.4,39.1,26.78,SE,128,6.3,7.2,33,0.00,,---,0.00,VWS V14.01,2013-06-20 07:51:00,
2013-06-20 02:56:00,69.8,38.6,26.78,SE,143,8.7,8.7,32,0.00,,---,0.00,VWS V14.01,2013-06-20 07:56:00,
2013-06-20 03:01:00,69.8,38.6,26.78,SE,133,7.6,7.6,32,0.00,,---,0.00,VWS V14.01,2013-06-20 08:01:00,
2013-06-20 03:06:00,69.8,38.6,26.78,SE,133,7.6,8.1,32,0.00,,---,0.00,VWS V14.01,2013-06-20 08:06:00,
2013-06-20 03:11:00,69.6,39.3,26.78,SE,132,5.8,7.6,33,0.00,,---,0.00,VWS V14.01,2013-06-20 08:11:00,
2013-06-20 03:16:00,69.6,39.3,26.78,SE,132,7.2,7.2,33,0.00,,---,0.00,VWS V14.01,2013-06-20 08:16:00,
2013-06-20 03:21:00,69.3,39.0,26.78,SE,133,7.2,8.1,33,0.00,,---,0.00,VWS V14.01,2013-06-20 08:21:00,
2013-06-20 03:26:00,69.1,38.8,26.78,ESE,121,6.7,6.7,33,0.00,,---,0.00,VWS V14.01,2013-06-20 08:26:00,
2013-06-20 03:31:00,69.1,38.8,26.78,SE,128,8.3,8.3,33,0.00,,---,0.00,VWS V14.01,2013-06-20 08:31:00,
2013-06-20 03:36:00,68.9,38.6,26.78,SE,128,6.3,6.3,33,0.00,,---,0.00,VWS V14.01,2013-06-20 08:36:00,
2013-06-20 03:41:00,68.9,38.6,26.78,SE,135,8.3,8.3,33,0.00,,---,0.00,VWS V14.01,2013-06-20 08:41:00,
2013-06-20 03:46:00,68.5,38.3,26.75,SE,135,6.3,6.3,33,0.00,,---,0.00,VWS V14.01,2013-06-20 08:46:00,
2013-06-20 03:51:00,68.5,38.3,26.75,SSE,149,7.6,8.1,33,0.00,,---,0.00,VWS V14.01,2013-06-20 08:51:00,
2013-06-20 03:56:00,68.5,38.3,26.75,SE,128,7.6,8.1,33,0.00,,---,0.00,VWS V14.01,2013-06-20 08:56:00,
2013-06-20 04:01:00,68.4,38.2,26.78,SE,124,6.3,6.3,33,0.00,,---,0.00,VWS V14.01,2013-06-20 09:01:00,
2013-06-20 04:06:00,68.2,38.0,26.78,SE,131,6.3,6.3,33,0.00,,---,0.00,VWS V14.01,2013-06-20 09:06:00,
2013-06-20 04:11:00,68.2,38.0,26.78,SE,126,6.3,6.3,33,0.00,,---,0.00,VWS V14.01,2013-06-20 09:11:00,
2013-06-20 04:16:00,68.0,37.8,26.75,ESE,118,5.8,5.8,33,0.00,,---,0.00,VWS V14.01,2013-06-20 09:16:00,
2013-06-20 04:21:00,68.0,37.8,26.75,ESE,122,5.4,5.4,33,0.00,,---,0.00,VWS V14.01,2013-06-20 09:21:00,
2013-06-20 04:26:00,67.8,37.7,26.75,ESE,121,3.1,3.1,33,0.00,,---,0.00,VWS V14.01,2013-06-20 09:26:00,
2013-06-20 04:30:00,67.5,37.4,26.75,SE,130,5.4,5.4,33,0.00,,---,0.00,VWS V14.01,2013-06-20 09:30:00,
2013-06-20 04:35:00,67.3,37.2,26.75,ESE,123,5.4,5.4,33,0.00,,---,0.00,VWS V14.01,2013-06-20 09:35:00,
2013-06-20 04:41:00,67.3,37.2,26.75,ESE,121,5.4,5.4,33,0.00,,---,0.00,VWS V14.01,2013-06-20 09:41:00,
2013-06-20 04:45:00,67.1,37.1,26.75,ESE,122,3.6,3.6,33,0.00,,---,0.00,VWS V14.01,2013-06-20 09:45:00,
2013-06-20 04:50:00,66.9,36.9,26.75,ESE,123,4.9,4.9,33,0.00,,---,0.00,VWS V14.01,2013-06-20 09:50:00,
2013-06-20 04:55:00,67.1,37.1,26.75,SE,127,5.4,5.8,33,0.00,,---,0.00,VWS V14.01,2013-06-20 09:55:00,
2013-06-20 05:00:00,67.1,37.1,26.75,SE,132,6.3,6.3,33,0.00,,---,0.00,VWS V14.01,2013-06-20 10:00:00,
2013-06-20 05:05:00,67.1,37.1,26.75,SE,127,5.4,5.4,33,0.00,,---,0.00,VWS V14.01,2013-06-20 10:05:00,
2013-06-20 05:10:00,66.9,36.9,26.75,SE,127,5.8,5.8,33,0.00,,---,0.00,VWS V14.01,2013-06-20 10:10:00,
2013-06-20 05:15:00,66.9,36.9,26.75,SE,127,4.0,4.0,33,0.00,,---,0.00,VWS V14.01,2013-06-20 10:15:00,
2013-06-20 05:20:00,66.9,36.9,26.75,SE,124,5.4,5.4,33,0.00,,---,0.00,VWS V14.01,2013-06-20 10:20:00,
2013-06-20 05:25:00,66.9,36.9,26.75,SE,124,4.0,4.0,33,0.00,,---,0.00,VWS V14.01,2013-06-20 10:25:00,
2013-06-20 05:30:00,67.1,37.1,26.75,SE,124,5.4,5.4,33,0.00,,---,0.00,VWS V14.01,2013-06-20 10:30:00,
2013-06-20 05:35:00,67.5,37.4,26.75,SE,125,5.4,5.4,33,0.00,,---,0.00,VWS V14.01,2013-06-20 10:35:00,
2013-06-20 05:40:00,67.8,37.7,26.75,SE,127,4.9,4.9,33,0.00,,---,0.00,VWS V14.01,2013-06-20 10:40:00,
2013-06-20 05:45:00,68.0,37.8,26.75,SE,126,5.4,5.4,33,0.00,,---,0.00,VWS V14.01,2013-06-20 10:45:00,
2013-06-20 05:50:00,68.0,37.8,26.75,SE,124,5.4,5.4,33,0.00,,---,0.00,VWS V14.01,2013-06-20 10:50:00,
2013-06-20 05:55:00,68.2,38.0,26.75,SE,128,5.8,5.8,33,0.00,,---,0.00,VWS V14.01,2013-06-20 10:55:00,
2013-06-20 06:00:00,68.2,38.0,26.75,SE,128,5.4,5.4,33,0.00,,---,0.00,VWS V14.01,2013-06-20 11:00:00,
2013-06-20 06:05:00,68.2,38.0,26.75,SE,127,5.4,5.4,33,0.00,,---,0.00,VWS V14.01,2013-06-20 11:05:00,
2013-06-20 06:10:00,68.4,38.2,26.75,SE,127,4.9,4.9,33,0.00,,---,0.00,VWS V14.01,2013-06-20 11:10:00,
2013-06-20 06:15:00,68.4,38.2,26.75,SE,131,3.6,5.4,33,0.00,,---,0.00,VWS V14.01,2013-06-20 11:15:00,
2013-06-20 06:20:00,68.5,38.3,26.75,SE,129,5.4,5.8,33,0.00,,---,0.00,VWS V14.01,2013-06-20 11:20:00,
2013-06-20 06:25:00,68.5,38.3,26.75,SE,124,4.5,5.4,33,0.00,,---,0.00,VWS V14.01,2013-06-20 11:25:00,
2013-06-20 06:30:00,68.7,38.5,26.75,SE,125,5.4,5.4,33,0.00,,---,0.00,VWS V14.01,2013-06-20 11:30:00,
2013-06-20 06:35:00,68.7,38.5,26.75,ESE,123,5.4,6.3,33,0.00,,---,0.00,VWS V14.01,2013-06-20 11:35:00,
2013-06-20 06:40:00,68.9,38.6,26.75,SE,127,5.4,6.3,33,0.00,,---,0.00,VWS V14.01,2013-06-20 11:40:00,
2013-06-20 06:45:00,68.9,38.6,26.75,SE,128,4.9,4.9,33,0.00,,---,0.00,VWS V14.01,2013-06-20 11:45:00,
2013-06-20 06:50:00,68.9,38.6,26.75,SE,126,5.8,5.8,33,0.00,,---,0.00,VWS V14.01,2013-06-20 11:50:00,
2013-06-20 06:55:00,69.1,38.8,26.75,SE,131,3.6,4.0,33,0.00,,---,0.00,VWS V14.01,2013-06-20 11:55:00,
2013-06-20 07:00:00,69.3,39.0,26.75,SE,133,5.4,5.4,33,0.00,,---,0.00,VWS V14.01,2013-06-20 12:00:00,
2013-06-20 07:05:00,69.4,39.1,26.75,SE,125,6.3,6.3,33,0.00,,---,0.00,VWS V14.01,2013-06-20 12:05:00,
2013-06-20 07:10:00,69.4,39.1,26.75,SE,129,6.3,6.3,33,0.00,,---,0.00,VWS V14.01,2013-06-20 12:10:00,
2013-06-20 07:15:00,69.6,39.3,26.75,SE,130,5.4,6.3,33,0.00,,---,0.00,VWS V14.01,2013-06-20 12:15:00,
2013-06-20 07:20:00,69.8,38.6,26.75,SE,134,5.4,6.3,32,0.00,,---,0.00,VWS V14.01,2013-06-20 12:20:00,
2013-06-20 07:25:00,70.0,38.8,26.75,SE,125,7.6,8.1,32,0.00,,---,0.00,VWS V14.01,2013-06-20 12:25:00,
2013-06-20 07:30:00,70.2,39.0,26.75,SE,137,5.4,5.8,32,0.00,,---,0.00,VWS V14.01,2013-06-20 12:30:00,
2013-06-20 07:35:00,70.2,39.0,26.75,SE,126,5.4,8.1,32,0.00,,---,0.00,VWS V14.01,2013-06-20 12:35:00,
2013-06-20 07:40:00,70.3,39.1,26.75,SE,133,7.2,7.2,32,0.00,,---,0.00,VWS V14.01,2013-06-20 12:40:00,
2013-06-20 07:45:00,70.5,39.3,26.72,SE,131,7.6,7.6,32,0.00,,---,0.00,VWS V14.01,2013-06-20 12:45:00,
2013-06-20 07:50:00,70.9,39.6,26.72,SE,136,5.8,6.3,32,0.00,,---,0.00,VWS V14.01,2013-06-20 12:50:00,
2013-06-20 07:55:00,71.1,39.7,26.72,SE,136,5.8,5.8,32,0.00,,---,0.00,VWS V14.01,2013-06-20 12:55:00,
2013-06-20 08:00:00,71.2,39.9,26.75,SE,131,7.6,7.6,32,0.00,,---,0.00,VWS V14.01,2013-06-20 13:00:00,
2013-06-20 08:05:00,71.4,40.0,26.75,SE,133,6.7,6.7,32,0.00,,---,0.00,VWS V14.01,2013-06-20 13:05:00,
2013-06-20 08:10:00,71.6,40.2,26.75,SE,136,6.3,6.3,32,0.00,,---,0.00,VWS V14.01,2013-06-20 13:10:00,
2013-06-20 08:15:00,71.8,40.4,26.75,SE,139,5.8,8.3,32,0.00,,---,0.00,VWS V14.01,2013-06-20 13:15:00,
2013-06-20 08:20:00,72.3,40.8,26.75,SE,129,8.1,8.7,32,0.00,,---,0.00,VWS V14.01,2013-06-20 13:20:00,
2013-06-20 08:25:00,73.0,41.5,26.75,SE,128,5.4,6.7,32,0.00,,---,0.00,VWS V14.01,2013-06-20 13:25:00,
2013-06-20 08:30:00,73.2,41.6,26.75,SE,138,7.6,7.6,32,0.00,,---,0.00,VWS V14.01,2013-06-20 13:30:00,
2013-06-20 08:35:00,73.0,41.5,26.75,SSE,157,6.3,6.3,32,0.00,,---,0.00,VWS V14.01,2013-06-20 13:35:00,
2013-06-20 08:40:00,72.9,41.3,26.75,SE,142,7.6,7.6,32,0.00,,---,0.00,VWS V14.01,2013-06-20 13:40:00,
2013-06-20 08:45:00,73.6,41.1,26.75,SSE,156,11.4,11.4,31,0.00,,---,0.00,VWS V14.01,2013-06-20 13:45:00,
2013-06-20 08:50:00,73.9,41.4,26.72,SSW,200,7.6,8.3,31,0.00,,---,0.00,VWS V14.01,2013-06-20 13:50:00,
2013-06-20 08:55:00,74.3,41.7,26.72,SE,138,8.3,9.2,31,0.00,,---,0.00,VWS V14.01,2013-06-20 13:55:00,
2013-06-20 09:00:00,74.5,41.9,26.72,SE,133,8.7,8.7,31,0.00,,---,0.00,VWS V14.01,2013-06-20 14:00:00,
2013-06-20 09:05:00,74.5,41.9,26.72,SE,139,8.1,8.7,31,0.00,,---,0.00,VWS V14.01,2013-06-20 14:05:00,
2013-06-20 09:10:00,74.8,42.2,26.72,SE,130,7.6,7.6,31,0.00,,---,0.00,VWS V14.01,2013-06-20 14:10:00,
2013-06-20 09:15:00,74.7,42.0,26.72,SE,143,11.0,11.0,31,0.00,,---,0.00,VWS V14.01,2013-06-20 14:15:00,
2013-06-20 09:20:00,75.2,42.5,26.72,SE,129,8.7,8.7,31,0.00,,---,0.00,VWS V14.01,2013-06-20 14:20:00,
2013-06-20 09:25:00,75.4,42.7,26.72,SE,135,8.1,8.1,31,0.00,,---,0.00,VWS V14.01,2013-06-20 14:25:00,
2013-06-20 09:30:00,75.4,42.7,26.72,SE,133,15.0,15.0,31,0.00,,---,0.00,VWS V14.01,2013-06-20 14:30:00,
2013-06-20 09:35:00,75.6,42.8,26.72,SSE,154,6.3,8.7,31,0.00,,---,0.00,VWS V14.01,2013-06-20 14:35:00,
2013-06-20 09:40:00,76.6,43.8,26.72,SSE,155,6.3,8.7,31,0.00,,---,0.00,VWS V14.01,2013-06-20 14:40:00,
2013-06-20 09:45:00,75.0,42.4,26.75,SE,137,8.3,8.3,31,0.00,,---,0.00,VWS V14.01,2013-06-20 14:45:00,
2013-06-20 09:50:00,75.6,42.8,26.75,SE,143,8.1,12.8,31,0.00,,---,0.00,VWS V14.01,2013-06-20 14:50:00,
2013-06-20 09:55:00,76.5,43.6,26.75,SE,141,5.8,12.3,31,0.00,,---,0.00,VWS V14.01,2013-06-20 14:55:00,
2013-06-20 10:00:00,75.9,43.1,26.75,SE,138,5.8,6.3,31,0.00,,---,0.00,VWS V14.01,2013-06-20 15:00:00,
2013-06-20 10:05:00,75.9,43.1,26.75,South,179,11.0,13.2,31,0.00,,---,0.00,VWS V14.01,2013-06-20 15:05:00,
2013-06-20 10:10:00,76.3,43.5,26.75,SSE,164,12.8,12.8,31,0.00,,---,0.00,VWS V14.01,2013-06-20 15:10:00,
2013-06-20 10:15:00,76.3,43.5,26.72,SSE,161,8.7,8.7,31,0.00,,---,0.00,VWS V14.01,2013-06-20 15:15:00,
2013-06-20 10:20:00,76.8,43.9,26.72,SSE,153,8.1,8.1,31,0.00,,---,0.00,VWS V14.01,2013-06-20 15:20:00,
2013-06-20 10:25:00,76.8,43.9,26.72,SSE,148,11.0,11.0,31,0.00,,---,0.00,VWS V14.01,2013-06-20 15:25:00,
2013-06-20 10:30:00,76.1,43.3,26.75,South,173,11.0,13.6,31,0.00,,---,0.00,VWS V14.01,2013-06-20 15:30:00,
2013-06-20 10:35:00,76.8,43.9,26.75,South,179,8.3,8.3,31,0.00,,---,0.00,VWS V14.01,2013-06-20 15:35:00,
2013-06-20 10:40:00,77.0,44.1,26.75,SSE,154,8.1,8.1,31,0.00,,---,0.00,VWS V14.01,2013-06-20 15:40:00,
2013-06-20 10:45:00,76.8,43.9,26.75,South,178,8.1,8.3,31,0.00,,---,0.00,VWS V14.01,2013-06-20 15:45:00,
2013-06-20 10:50:00,77.2,44.2,26.75,SSE,149,14.5,14.5,31,0.00,,---,0.00,VWS V14.01,2013-06-20 15:50:00,
2013-06-20 10:55:00,77.7,44.7,26.75,SE,138,8.1,8.3,31,0.00,,---,0.00,VWS V14.01,2013-06-20 15:55:00,
2013-06-20 11:00:00,77.5,44.5,26.75,SSE,161,8.1,8.1,31,0.00,,---,0.00,VWS V14.01,2013-06-20 16:00:00,
2013-06-20 11:05:00,77.7,44.7,26.75,South,179,11.0,11.0,31,0.00,,---,0.00,VWS V14.01,2013-06-20 16:05:00,
2013-06-20 11:10:00,77.5,44.5,26.75,SSE,152,11.0,11.0,31,0.00,,---,0.00,VWS V14.01,2013-06-20 16:10:00,
2013-06-20 11:15:00,77.4,44.4,26.75,South,170,9.6,9.6,31,0.00,,---,0.00,VWS V14.01,2013-06-20 16:15:00,
2013-06-20 11:20:00,77.5,44.5,26.75,SSE,155,12.8,12.8,31,0.00,,---,0.00,VWS V14.01,2013-06-20 16:20:00,
2013-06-20 11:25:00,77.9,44.9,26.75,SSE,149,8.1,8.3,31,0.00,,---,0.00,VWS V14.01,2013-06-20 16:25:00,
2013-06-20 11:30:00,78.4,45.3,26.75,South,190,6.3,6.3,31,0.00,,---,0.00,VWS V14.01,2013-06-20 16:30:00,
2013-06-20 11:35:00,79.2,45.1,26.75,SSE,157,10.5,10.5,30,0.00,,---,0.00,VWS V14.01,2013-06-20 16:35:00,
2013-06-20 11:40:00,80.1,45.9,26.75,South,173,11.0,11.0,30,0.00,,---,0.00,VWS V14.01,2013-06-20 16:40:00,
2013-06-20 11:45:00,82.0,47.6,26.75,SE,144,7.6,8.1,30,0.00,,---,0.00,VWS V14.01,2013-06-20 16:45:00,
2013-06-20 11:50:00,82.2,47.7,26.75,SE,137,8.3,10.1,30,0.00,,---,0.00,VWS V14.01,2013-06-20 16:50:00,
2013-06-20 11:55:00,81.1,46.8,26.75,SSE,162,5.8,8.3,30,0.00,,---,0.00,VWS V14.01,2013-06-20 16:55:00,
2013-06-20 12:00:00,84.2,48.5,26.75,SSE,161,7.6,7.6,29,0.00,,---,0.00,VWS V14.01,2013-06-20 17:00:00,
2013-06-20 12:05:00,82.0,47.6,26.75,SSE,161,8.7,8.7,30,0.00,,---,0.00,VWS V14.01,2013-06-20 17:05:00,
2013-06-20 12:10:00,83.3,47.8,26.75,South,181,7.6,8.3,29,0.00,,---,0.00,VWS V14.01,2013-06-20 17:10:00,
2013-06-20 12:15:00,81.7,47.3,26.75,SSE,165,12.8,12.8,30,0.00,,---,0.00,VWS V14.01,2013-06-20 17:15:00,
2013-06-20 12:20:00,82.0,47.6,26.75,SE,133,10.1,10.1,30,0.00,,---,0.00,VWS V14.01,2013-06-20 17:20:00,
2013-06-20 12:25:00,83.1,47.6,26.75,SE,142,5.8,10.1,29,0.00,,---,0.00,VWS V14.01,2013-06-20 17:25:00,
2013-06-20 12:30:00,86.2,50.2,26.75,South,187,8.3,8.3,29,0.00,,---,0.00,VWS V14.01,2013-06-20 17:30:00,
2013-06-20 12:35:00,86.5,50.5,26.75,SE,130,6.3,8.3,29,0.00,,---,0.00,VWS V14.01,2013-06-20 17:35:00,
2013-06-20 12:40:00,85.8,49.9,26.75,SSE,162,12.3,12.3,29,0.00,,---,0.00,VWS V14.01,2013-06-20 17:40:00,
2013-06-20 12:45:00,87.6,51.5,26.75,SE,139,7.2,8.1,29,0.00,,---,0.00,VWS V14.01,2013-06-20 17:45:00,
2013-06-20 12:50:00,89.8,52.4,26.75,South,172,9.6,9.6,28,0.00,,---,0.00,VWS V14.01,2013-06-20 17:50:00,
2013-06-20 12:55:00,91.0,53.4,26.75,SE,131,5.8,5.8,28,0.00,,---,0.00,VWS V14.01,2013-06-20 17:55:00,
2013-06-20 13:00:00,90.7,53.1,26.75,SSW,195,8.1,8.1,28,0.00,,---,0.00,VWS V14.01,2013-06-20 18:00:00,
2013-06-20 13:05:00,92.5,53.7,26.75,SE,143,3.6,5.8,27,0.00,,---,0.00,VWS V14.01,2013-06-20 18:05:00,
2013-06-20 13:10:00,89.8,52.4,26.75,SE,129,5.4,5.8,28,0.00,,---,0.00,VWS V14.01,2013-06-20 18:10:00,
2013-06-20 13:15:00,89.2,51.9,26.75,ESE,104,3.6,3.6,28,0.00,,---,0.00,VWS V14.01,2013-06-20 18:15:00,
2013-06-20 13:20:00,92.3,53.5,26.75,SE,131,4.9,4.9,27,0.00,,---,0.00,VWS V14.01,2013-06-20 18:20:00,
2013-06-20 13:25:00,91.8,53.1,26.75,SE,134,4.0,6.3,27,0.00,,---,0.00,VWS V14.01,2013-06-20 18:25:00,
2013-06-20 13:30:00,90.5,53.0,26.75,SE,131,6.3,6.3,28,0.00,,---,0.00,VWS V14.01,2013-06-20 18:30:00,
2013-06-20 13:35:00,91.2,53.6,26.75,SE,134,8.1,8.1,28,0.00,,---,0.00,VWS V14.01,2013-06-20 18:35:00,
2013-06-20 13:40:00,93.6,54.6,26.75,SE,142,3.1,3.6,27,0.00,,---,0.00,VWS V14.01,2013-06-20 18:40:00,
2013-06-20 13:45:00,91.9,53.2,26.75,ESE,121,6.7,6.7,27,0.00,,---,0.00,VWS V14.01,2013-06-20 18:45:00,
2013-06-20 13:50:00,94.3,55.2,26.75,South,170,4.0,4.0,27,0.00,,---,0.00,VWS V14.01,2013-06-20 18:50:00,
2013-06-20 13:55:00,92.1,53.4,26.75,SE,125,4.9,4.9,27,0.00,,---,0.00,VWS V14.01,2013-06-20 18:55:00,
2013-06-20 14:00:00,93.4,54.4,26.72,SE,135,4.9,4.9,27,0.00,,---,0.00,VWS V14.01,2013-06-20 19:00:00,
2013-06-20 14:05:00,92.1,53.4,26.72,SSE,154,4.0,4.0,27,0.00,,---,0.00,VWS V14.01,2013-06-20 19:05:00,
2013-06-20 14:10:00,93.6,54.6,26.72,SE,133,6.3,6.3,27,0.00,,---,0.00,VWS V14.01,2013-06-20 19:10:00,
2013-06-20 14:15:00,95.0,55.8,26.72,SSE,147,4.9,5.4,27,0.00,,---,0.00,VWS V14.01,2013-06-20 19:15:00,
2013-06-20 14:20:00,94.1,55.0,26.72,SE,138,4.9,5.4,27,0.00,,---,0.00,VWS V14.01,2013-06-20 19:20:00,
2013-06-20 14:25:00,92.3,53.5,26.72,ESE,117,4.9,5.4,27,0.00,,---,0.00,VWS V14.01,2013-06-20 19:25:00,
2013-06-20 14:30:00,92.3,53.5,26.72,SE,136,8.1,8.1,27,0.00,,---,0.00,VWS V14.01,2013-06-20 19:30:00,
2013-06-20 14:35:00,91.9,53.2,26.72,SE,132,5.4,5.4,27,0.00,,---,0.00,VWS V14.01,2013-06-20 19:35:00,
2013-06-20 14:40:00,93.9,54.9,26.72,SE,136,5.4,5.4,27,0.00,,---,0.00,VWS V14.01,2013-06-20 19:40:00,
2013-06-20 14:45:00,93.9,54.9,26.72,SE,134,6.3,6.3,27,0.00,,---,0.00,VWS V14.01,2013-06-20 19:45:00,
2013-06-20 14:50:00,92.8,54.0,26.72,SE,134,8.3,8.3,27,0.00,,---,0.00,VWS V14.01,2013-06-20 19:50:00,
2013-06-20 14:55:00,92.5,53.7,26.72,SE,136,7.6,7.6,27,0.00,,---,0.00,VWS V14.01,2013-06-20 19:55:00,
2013-06-20 15:00:00,93.7,54.7,26.72,SSE,159,5.8,7.6,27,0.00,,---,0.00,VWS V14.01,2013-06-20 20:00:00,
2013-06-20 15:05:00,95.0,55.8,26.72,SE,144,5.8,5.8,27,0.00,,---,0.00,VWS V14.01,2013-06-20 20:05:00,
2013-06-20 15:10:00,94.6,55.5,26.72,ESE,122,4.9,4.9,27,0.00,,---,0.00,VWS V14.01,2013-06-20 20:10:00,
2013-06-20 15:15:00,94.1,55.0,26.72,SE,134,7.2,7.2,27,0.00,,---,0.00,VWS V14.01,2013-06-20 20:15:00,
2013-06-20 15:20:00,93.7,54.7,26.72,SE,135,6.3,6.7,27,0.00,,---,0.00,VWS V14.01,2013-06-20 20:20:00,
2013-06-20 15:25:00,94.8,55.7,26.72,SE,127,5.8,5.8,27,0.00,,---,0.00,VWS V14.01,2013-06-20 20:25:00,
2013-06-20 15:30:00,93.6,54.6,26.72,SE,131,5.8,5.8,27,0.00,,---,0.00,VWS V14.01,2013-06-20 20:30:00,
2013-06-20 15:35:00,93.6,54.6,26.72,SE,126,5.4,5.4,27,0.00,,---,0.00,VWS V14.01,2013-06-20 20:35:00,
2013-06-20 15:40:00,93.9,54.9,26.72,ESE,119,6.3,6.3,27,0.00,,---,0.00,VWS V14.01,2013-06-20 20:40:00,
2013-06-20 15:45:00,95.7,56.4,26.72,SE,144,4.0,5.4,27,0.00,,---,0.00,VWS V14.01,2013-06-20 20:45:00,
2013-06-20 15:50:00,95.0,55.8,26.72,SE,129,4.9,6.3,27,0.00,,---,0.00,VWS V14.01,2013-06-20 20:50:00,
2013-06-20 15:55:00,95.0,55.8,26.72,SE,133,4.0,8.3,27,0.00,,---,0.00,VWS V14.01,2013-06-20 20:55:00,
2013-06-20 16:00:00,95.4,56.1,26.70,SE,130,3.1,3.1,27,0.00,,---,0.00,VWS V14.01,2013-06-20 21:00:00,
2013-06-20 16:05:00,93.7,54.7,26.70,SE,132,8.1,8.7,27,0.00,,---,0.00,VWS V14.01,2013-06-20 21:05:00,
2013-06-20 16:10:00,93.4,54.4,26.70,SE,133,5.8,8.3,27,0.00,,---,0.00,VWS V14.01,2013-06-20 21:10:00,
2013-06-20 16:15:00,93.7,54.7,26.72,SE,140,6.7,6.7,27,0.00,,---,0.00,VWS V14.01,2013-06-20 21:15:00,
2013-06-20 16:20:00,94.3,55.2,26.72,ESE,122,7.2,7.2,27,0.00,,---,0.00,VWS V14.01,2013-06-20 21:20:00,
2013-06-20 16:25:00,95.4,56.1,26.72,SE,137,5.8,5.8,27,0.00,,---,0.00,VWS V14.01,2013-06-20 21:25:00,
2013-06-20 16:30:00,94.1,55.0,26.70,SE,124,8.1,10.1,27,0.00,,---,0.00,VWS V14.01,2013-06-20 21:30:00,
2013-06-20 16:35:00,93.9,54.9,26.70,SE,132,8.1,8.1,27,0.00,,---,0.00,VWS V14.01,2013-06-20 21:35:00,
2013-06-20 16:40:00,94.5,55.3,26.70,SE,135,6.3,8.1,27,0.00,,---,0.00,VWS V14.01,2013-06-20 21:40:00,
2013-06-20 16:45:00,93.4,54.4,26.70,SE,124,5.8,6.3,27,0.00,,---,0.00,VWS V14.01,2013-06-20 21:45:00,
2013-06-20 16:50:00,93.2,54.3,26.70,SE,139,7.2,7.2,27,0.00,,---,0.00,VWS V14.01,2013-06-20 21:50:00,
2013-06-20 16:55:00,93.4,54.4,26.70,SE,135,7.6,7.6,27,0.00,,---,0.00,VWS V14.01,2013-06-20 21:55:00,
2013-06-20 17:00:00,93.4,54.4,26.70,ESE,120,5.4,5.4,27,0.00,,---,0.00,VWS V14.01,2013-06-20 22:00:00,
2013-06-20 17:05:00,93.4,54.4,26.70,ESE,122,8.3,8.3,27,0.00,,---,0.00,VWS V14.01,2013-06-20 22:05:00,
2013-06-20 17:10:00,93.6,54.6,26.70,SE,125,7.6,8.1,27,0.00,,---,0.00,VWS V14.01,2013-06-20 22:10:00,
2013-06-20 17:15:00,93.6,54.6,26.70,ESE,122,6.3,6.3,27,0.00,,---,0.00,VWS V14.01,2013-06-20 22:15:00,
2013-06-20 17:20:00,94.5,55.3,26.70,SE,140,5.4,5.4,27,0.00,,---,0.00,VWS V14.01,2013-06-20 22:20:00,
2013-06-20 17:25:00,93.2,54.3,26.70,ESE,120,5.8,5.8,27,0.00,,---,0.00,VWS V14.01,2013-06-20 22:25:00,
2013-06-20 17:30:00,94.1,55.0,26.70,SE,139,5.8,6.3,27,0.00,,---,0.00,VWS V14.01,2013-06-20 22:30:00,
2013-06-20 17:35:00,94.3,55.2,26.70,SE,128,6.3,6.3,27,0.00,,---,0.00,VWS V14.01,2013-06-20 22:35:00,
2013-06-20 17:40:00,93.7,54.7,26.70,SE,143,7.6,8.1,27,0.00,,---,0.00,VWS V14.01,2013-06-20 22:40:00,
2013-06-20 17:45:00,94.6,55.5,26.70,SE,130,5.8,5.8,27,0.00,,---,0.00,VWS V14.01,2013-06-20 22:45:00,
2013-06-20 17:50:00,94.3,55.2,26.70,SE,135,8.1,8.1,27,0.00,,---,0.00,VWS V14.01,2013-06-20 22:50:00,
2013-06-20 17:55:00,93.9,54.9,26.70,SE,137,5.8,5.8,27,0.00,,---,0.00,VWS V14.01,2013-06-20 22:55:00,
2013-06-20 18:00:00,93.9,54.9,26.70,SE,129,5.8,6.3,27,0.00,,---,0.00,VWS V14.01,2013-06-20 23:00:00,
2013-06-20 18:05:00,95.0,55.8,26.70,SE,125,4.9,4.9,27,0.00,,---,0.00,VWS V14.01,2013-06-20 23:05:00,
2013-06-20 18:10:00,95.5,56.3,26.70,SE,141,6.3,7.6,27,0.00,,---,0.00,VWS V14.01,2013-06-20 23:10:00,
2013-06-20 18:15:00,95.4,56.1,26.70,SE,129,4.9,4.9,27,0.00,,---,0.00,VWS V14.01,2013-06-20 23:15:00,
2013-06-20 18:20:00,94.8,55.7,26.70,ESE,118,4.9,5.4,27,0.00,,---,0.00,VWS V14.01,2013-06-20 23:20:00,
2013-06-20 18:25:00,95.5,56.3,26.70,ESE,123,4.5,4.5,27,0.00,,---,0.00,VWS V14.01,2013-06-20 23:25:00,
2013-06-20 18:31:00,95.4,56.1,26.70,ESE,119,4.0,5.8,27,0.00,,---,0.00,VWS V14.01,2013-06-20 23:31:00,
2013-06-20 18:36:00,96.1,56.7,26.70,ESE,108,2.7,2.7,27,0.00,,---,0.00,VWS V14.01,2013-06-20 23:36:00,
2013-06-20 18:41:00,95.5,56.3,26.70,ESE,119,2.7,2.7,27,0.00,,---,0.00,VWS V14.01,2013-06-20 23:41:00,
2013-06-20 18:46:00,95.2,56.0,26.70,ESE,119,3.1,3.1,27,0.00,,---,0.00,VWS V14.01,2013-06-20 23:46:00,
2013-06-20 18:51:00,95.9,56.6,26.70,ENE,61,2.7,3.1,27,0.00,,---,0.00,VWS V14.01,2013-06-20 23:51:00,
2013-06-20 18:56:00,96.1,56.7,26.70,ESE,119,3.1,3.1,27,0.00,,---,0.00,VWS V14.01,2013-06-20 23:56:00,
2013-06-20 19:01:00,96.3,56.9,26.70,East,97,3.1,3.1,27,0.00,,---,0.00,VWS V14.01,2013-06-21 00:01:00,
2013-06-20 19:06:00,95.7,56.4,26.70,East,92,3.1,3.1,27,0.00,,---,0.00,VWS V14.01,2013-06-21 00:06:00,
2013-06-20 19:11:00,95.7,56.4,26.70,East,91,2.7,2.7,27,0.00,,---,0.00,VWS V14.01,2013-06-21 00:11:00,
2013-06-20 19:17:00,95.0,55.8,26.70,East,96,3.6,3.6,27,0.00,,---,0.00,VWS V14.01,2013-06-21 00:17:00,
2013-06-20 19:22:00,94.6,55.5,26.70,East,86,2.2,2.2,27,0.00,,---,0.00,VWS V14.01,2013-06-21 00:22:00,
2013-06-20 19:26:00,93.6,54.6,26.70,East,79,3.1,3.1,27,0.00,,---,0.00,VWS V14.01,2013-06-21 00:26:00,
2013-06-20 19:31:00,92.5,53.7,26.70,ENE,69,3.6,3.6,27,0.00,,---,0.00,VWS V14.01,2013-06-21 00:31:00,
2013-06-20 19:36:00,92.1,53.4,26.70,East,79,2.7,2.7,27,0.00,,---,0.00,VWS V14.01,2013-06-21 00:36:00,
2013-06-20 19:41:00,90.9,53.3,26.70,NE,45,2.2,2.2,28,0.00,,---,0.00,VWS V14.01,2013-06-21 00:41:00,
2013-06-20 19:47:00,90.3,52.8,26.70,East,80,3.6,3.6,28,0.00,,---,0.00,VWS V14.01,2013-06-21 00:47:00,
2013-06-20 19:52:00,89.8,52.4,26.70,East,80,4.0,4.0,28,0.00,,---,0.00,VWS V14.01,2013-06-21 00:52:00,
2013-06-20 19:57:00,89.4,52.1,26.70,East,93,4.0,4.0,28,0.00,,---,0.00,VWS V14.01,2013-06-21 00:57:00,
2013-06-20 20:02:00,89.2,51.9,26.70,East,85,2.7,3.1,28,0.00,,---,0.00,VWS V14.01,2013-06-21 01:02:00,
2013-06-20 20:07:00,88.5,51.3,26.70,NNE,23,3.1,3.1,28,0.00,,---,0.00,VWS V14.01,2013-06-21 01:07:00,
2013-06-20 20:12:00,88.2,51.0,26.70,East,88,3.1,3.1,28,0.00,,---,0.00,VWS V14.01,2013-06-21 01:12:00,
2013-06-20 20:17:00,87.8,50.7,26.70,East,81,2.7,2.7,28,0.00,,---,0.00,VWS V14.01,2013-06-21 01:17:00,
2013-06-20 20:22:00,87.1,51.0,26.70,ENE,73,3.6,3.6,29,0.00,,---,0.00,VWS V14.01,2013-06-21 01:22:00,
2013-06-20 20:27:00,86.4,50.4,26.70,East,86,2.7,2.7,29,0.00,,---,0.00,VWS V14.01,2013-06-21 01:27:00,
2013-06-20 20:32:00,85.8,49.9,26.70,East,86,3.1,3.1,29,0.00,,---,0.00,VWS V14.01,2013-06-21 01:32:00,
2013-06-20 20:37:00,85.5,49.6,26.70,ENE,67,3.1,3.1,29,0.00,,---,0.00,VWS V14.01,2013-06-21 01:37:00,
2013-06-20 20:42:00,84.9,49.2,26.70,NE,40,2.7,2.7,29,0.00,,---,0.00,VWS V14.01,2013-06-21 01:42:00,
2013-06-20 20:47:00,84.6,48.8,26.70,NE,47,0.0,2.7,29,0.00,,---,0.00,VWS V14.01,2013-06-21 01:47:00,
2013-06-20 20:52:00,83.8,48.2,26.70,ENE,60,0.0,0.0,29,0.00,,---,0.00,VWS V14.01,2013-06-21 01:52:00,
2013-06-20 20:57:00,83.3,47.8,26.70,ENE,60,2.7,2.7,29,0.00,,---,0.00,VWS V14.01,2013-06-21 01:57:00,
2013-06-20 21:02:00,82.6,47.1,26.70,ENE,60,2.7,2.7,29,0.00,,---,0.00,VWS V14.01,2013-06-21 02:02:00,
2013-06-20 21:07:00,82.4,47.0,26.70,ENE,60,2.2,2.7,29,0.00,,---,0.00,VWS V14.01,2013-06-21 02:07:00,
2013-06-20 21:12:00,81.7,47.3,26.70,ENE,60,0.0,0.0,30,0.00,,---,0.00,VWS V14.01,2013-06-21 02:12:00,
2013-06-20 21:17:00,81.1,46.8,26.70,ENE,60,0.0,0.0,30,0.00,,---,0.00,VWS V14.01,2013-06-21 02:17:00,
2013-06-20 21:22:00,80.8,46.5,26.70,ENE,60,0.0,0.0,30,0.00,,---,0.00,VWS V14.01,2013-06-21 02:22:00,
2013-06-20 21:27:00,80.2,46.0,26.70,ENE,60,2.7,2.7,30,0.00,,---,0.00,VWS V14.01,2013-06-21 02:27:00,
2013-06-20 21:32:00,79.7,45.6,26.72,ENE,60,2.7,2.7,30,0.00,,---,0.00,VWS V14.01,2013-06-21 02:32:00,
2013-06-20 21:37:00,79.3,45.2,26.72,ENE,60,2.2,2.7,30,0.00,,---,0.00,VWS V14.01,2013-06-21 02:37:00,
2013-06-20 21:42:00,79.2,45.1,26.72,ENE,60,3.6,3.6,30,0.00,,---,0.00,VWS V14.01,2013-06-21 02:42:00,
2013-06-20 21:47:00,79.2,45.1,26.72,ENE,60,2.2,2.7,30,0.00,,---,0.00,VWS V14.01,2013-06-21 02:47:00,
2013-06-20 21:52:00,79.2,45.1,26.72,ENE,60,2.7,2.7,30,0.00,,---,0.00,VWS V14.01,2013-06-21 02:52:00,
2013-06-20 21:57:00,79.3,45.2,26.72,ENE,60,2.7,2.7,30,0.00,,---,0.00,VWS V14.01,2013-06-21 02:57:00,
2013-06-20 22:02:00,79.3,45.2,26.72,ENE,60,3.1,3.1,30,0.00,,---,0.00,VWS V14.01,2013-06-21 03:02:00,
2013-06-20 22:07:00,79.3,45.2,26.72,ENE,61,2.7,3.1,30,0.00,,---,0.00,VWS V14.01,2013-06-21 03:07:00,
2013-06-20 22:12:00,79.3,45.2,26.72,East,95,2.7,3.1,30,0.00,,---,0.00,VWS V14.01,2013-06-21 03:12:00,
2013-06-20 22:17:00,79.3,45.2,26.72,East,87,3.1,3.1,30,0.00,,---,0.00,VWS V14.01,2013-06-21 03:17:00,
2013-06-20 22:22:00,79.5,45.4,26.72,East,80,3.1,3.1,30,0.00,,---,0.00,VWS V14.01,2013-06-21 03:22:00,
2013-06-20 22:27:00,79.3,45.2,26.72,East,84,2.7,2.7,30,0.00,,---,0.00,VWS V14.01,2013-06-21 03:27:00,
2013-06-20 22:32:00,79.0,44.9,26.72,East,84,2.7,2.7,30,0.00,,---,0.00,VWS V14.01,2013-06-21 03:32:00,
2013-06-20 22:37:00,78.6,45.5,26.72,East,84,2.7,2.7,31,0.00,,---,0.00,VWS V14.01,2013-06-21 03:37:00,
2013-06-20 22:42:00,78.3,45.2,26.72,East,84,0.0,2.7,31,0.00,,---,0.00,VWS V14.01,2013-06-21 03:42:00,
2013-06-20 22:47:00,78.1,45.0,26.72,East,84,2.2,2.7,31,0.00,,---,0.00,VWS V14.01,2013-06-21 03:47:00,
2013-06-20 22:52:00,78.1,45.0,26.72,East,84,2.7,3.1,31,0.00,,---,0.00,VWS V14.01,2013-06-21 03:52:00,
2013-06-20 22:57:00,78.3,45.2,26.72,East,84,2.2,2.2,31,0.00,,---,0.00,VWS V14.01,2013-06-21 03:57:00,
2013-06-20 23:01:00,77.9,44.9,26.72,East,84,2.2,2.2,31,0.00,,---,0.00,VWS V14.01,2013-06-21 04:01:00,
2013-06-20 23:06:00,77.5,44.5,26.72,East,84,0.0,0.0,31,0.00,,---,0.00,VWS V14.01,2013-06-21 04:06:00,
2013-06-20 23:11:00,77.0,44.1,26.72,East,84,0.0,0.0,31,0.00,,---,0.00,VWS V14.01,2013-06-21 04:11:00,
2013-06-20 23:16:00,76.6,43.8,26.72,East,84,0.0,0.0,31,0.00,,---,0.00,VWS V14.01,2013-06-21 04:16:00,
2013-06-20 23:21:00,75.7,43.0,26.72,East,84,0.0,0.0,31,0.00,,---,0.00,VWS V14.01,2013-06-21 04:21:00,
2013-06-20 23:26:00,74.8,42.2,26.72,East,84,0.0,0.0,31,0.00,,---,0.00,VWS V14.01,2013-06-21 04:26:00,
2013-06-20 23:31:00,74.5,41.9,26.72,NE,44,2.2,3.6,31,0.00,,---,0.00,VWS V14.01,2013-06-21 04:31:00,
2013-06-20 23:36:00,74.1,41.6,26.72,NNE,27,2.2,2.7,31,0.00,,---,0.00,VWS V14.01,2013-06-21 04:36:00,
2013-06-20 23:41:00,73.8,41.3,26.72,NE,36,2.2,2.7,31,0.00,,---,0.00,VWS V14.01,2013-06-21 04:41:00,
2013-06-20 23:46:00,74.1,41.6,26.72,NE,54,0.0,0.0,31,0.00,,---,0.00,VWS V14.01,2013-06-21 04:46:00,
2013-06-20 23:51:00,73.6,41.1,26.72,NE,44,0.0,0.0,31,0.00,,---,0.00,VWS V14.01,2013-06-21 04:51:00,
2013-06-20 23:56:00,73.8,41.3,26.72,NE,44,0.0,0.0,31,0.00,,---,0.00,VWS V14.01,2013-06-21 04:56:00,